Chanute, KS

7:44 PM CDT on May 22, 2017 (GMT -0500)
Chanute Martin Johnson

Weather History for KCNU - May, 2013

Change the Weather History Date:

Wednesday, May 8, 2013

  Actual Average Record
Temperature  
Mean Temperature 67 °F 64 °F  
Max Temperature 76 °F 74 °F 91 °F (1962)
Min Temperature 57 °F 53 °F 35 °F (1976)
Degree Days  
Heating Degree Days 0 3  
Month to date heating degree days 98 33  
Since 1 July heating degree days 4279 4435  
Cooling Degree Days 2 2  
Month to date cooling degree days 2 14  
Year to date cooling degree days 17 45  
Growing Degree Days 16 (Base 50)    
Moisture  
Dew Point 58 °F    
Average Humidity 79    
Maximum Humidity 93    
Minimum Humidity 64    
Precipitation  
Precipitation 0.36 in 0.17 in 3.69 in (2009)
Month to date precipitation 1.34 1.28  
Year to date precipitation 12.52 11.88  
Sea Level Pressure  
Sea Level Pressure 29.95 in    
Wind  
Wind Speed 9 mph (SE)    
Max Wind Speed 24 mph    
Max Gust Speed 30 mph    
Visibility 8 miles    
Events Rain , Thunderstorm    
T = Trace of Precipitation, MM = Missing Value Source: NWS Daily Summary

Daily Weather History Graph

Daily Weather History Graph

Search for Another Location

Airport or City:

Trip Planner

Search our weather history database for the weather conditions in past years. The results will help you decide how hot, cold, wet, or windy it might be!

Date:

Astronomy

May. 08, 2013 Rise Set
Actual Time 6:18 AM CDT 8:18 PM CDT
Civil Twilight 5:49 AM CDT 8:47 PM CDT
Nautical Twilight 5:14 AM CDT 9:22 PM CDT
Astronomical Twilight 4:37 AM CDT 10:00 PM CDT
Moon 5:25 AM CDT (5/8) 7:18 PM CDT (5/8)
Length of Visible Light 14h 57m
Length of Day
14h 00m
Waning Crescent, 2% of the Moon is Illuminated
May 8
Waning Crescent
May 9
New
May 17
First Quarter
May 24
Full
May 31
Last Quarter

Hourly Weather History & Observations

Time (CDT) Temp. Dew Point Humidity Pressure Visibility Wind Dir Wind Speed Gust Speed Precip Events Conditions
12:52 AM 60.1 °F 52.0 °F 75% 29.96 in 10.0 mi SE 6.9 mph - N/A   Clear
1:52 AM 57.9 °F 53.1 °F 84% 29.95 in 10.0 mi ESE 5.8 mph - N/A   Clear
2:52 AM 60.1 °F 54.0 °F 80% 29.95 in 10.0 mi Calm Calm - N/A   Overcast
3:52 AM 59.0 °F 54.0 °F 83% 29.94 in 10.0 mi East 6.9 mph - 0.00 in   Overcast
4:52 AM 59.0 °F 54.0 °F 83% 29.96 in 10.0 mi SSE 5.8 mph - 0.02 in Rain Light Rain
5:52 AM 59.0 °F 55.0 °F 87% 30.00 in 10.0 mi WNW 8.1 mph - 0.02 in Rain Light Rain
6:52 AM 57.9 °F 55.9 °F 93% 30.02 in 6.0 mi Calm Calm - 0.05 in Rain Rain
7:52 AM 57.9 °F 55.9 °F 93% 30.01 in 4.0 mi Calm Calm - 0.12 in Rain Light Rain
8:04 AM 57.2 °F 57.2 °F 100% 30.03 in 2.0 mi Calm Calm - 0.03 in Rain Rain
8:16 AM 57.2 °F 55.4 °F 94% 30.05 in 3.0 mi WNW 5.8 mph - 0.04 in Rain Light Rain
8:24 AM 57.2 °F 55.4 °F 94% 30.03 in 2.5 mi NE 4.6 mph - 0.06 in Rain Light Rain
8:42 AM 57.2 °F 57.2 °F 100% 30.03 in 5.0 mi NNE 4.6 mph - 0.09 in Rain Light Rain
8:52 AM 57.9 °F 55.9 °F 93% 30.02 in 3.0 mi ENE 5.8 mph - 0.11 in Rain Rain
9:52 AM 60.1 °F 57.9 °F 93% 30.03 in 8.0 mi SE 4.6 mph - 0.03 in Rain Light Rain
10:52 AM 62.1 °F 57.9 °F 86% 30.02 in 10.0 mi SE 9.2 mph - 0.00 in   Overcast
11:52 AM 62.1 °F 57.0 °F 84% 29.92 in 10.0 mi SE 20.7 mph 29.9 mph 0.00 in   Scattered Clouds
12:52 PM 66.0 °F 57.9 °F 75% 29.94 in 10.0 mi SSE 11.5 mph - 0.01 in   Clear
1:52 PM 68.0 °F 59.0 °F 73% 29.94 in 10.0 mi SSE 13.8 mph - N/A   Clear
2:52 PM 71.1 °F 61.0 °F 70% 29.93 in 10.0 mi SSE 13.8 mph - N/A   Clear
3:52 PM 73.9 °F 62.1 °F 66% 29.91 in 10.0 mi SSE 15.0 mph 23.0 mph N/A   Clear
4:52 PM 73.9 °F 62.1 °F 66% 29.88 in 10.0 mi SSE 13.8 mph 19.6 mph N/A   Scattered Clouds
5:52 PM 75.9 °F 63.0 °F 64% 29.86 in 10.0 mi SSE 12.7 mph 20.7 mph N/A   Clear
6:52 PM 73.0 °F 61.0 °F 66% 29.85 in 10.0 mi SSE 8.1 mph - N/A   Clear
7:52 PM 72.0 °F 61.0 °F 68% 29.86 in 10.0 mi SE 5.8 mph - N/A   Partly Cloudy
8:52 PM 70.0 °F 60.1 °F 71% 29.86 in 10.0 mi ESE 6.9 mph - N/A   Clear
9:52 PM 68.0 °F 60.1 °F 76% 29.87 in 10.0 mi ESE 5.8 mph - 0.00 in Rain Light Rain
10:52 PM 69.1 °F 59.0 °F 70% 29.87 in 10.0 mi SE 9.2 mph - 0.00 in Thunderstorm Scattered Clouds
11:01 PM 69.8 °F 59.0 °F 68% 29.89 in 10.0 mi SE 10.4 mph - N/A   Mostly Cloudy
11:52 PM 66.9 °F 59.0 °F 76% 29.88 in 10.0 mi SSE 8.1 mph - N/A   Clear